When you browse on this site, cookies collect data to enhance your experience and personalize the content and advertising you see.
Visit our Privacy Policy to learn more. By continuing to use the site, you agree to this use of cookies and data.

Météo par heure à Sydney

Ce jour, 16 Juillet, Jeudi

Heure Température Précipitation Vent Pression Humidité
00:00 +11°C° 0 mm 8 m/s 762 mmHg 60%
01:00 +10°C° 0 mm 8 m/s 762 mmHg 61%
02:00 +10°C° 0 mm 8 m/s 761 mmHg 62%
03:00 +10°C° 0 mm 8 m/s 761 mmHg 63%
04:00 +9°C° 0 mm 8 m/s 761 mmHg 64%
05:00 +9°C° 0.1 mm 8 m/s 761 mmHg 63%
06:00 +9°C° 0.1 mm 8 m/s 761 mmHg 63%
07:00 +9°C° 0.1 mm 8 m/s 761 mmHg 62%
08:00 +10°C° 0.1 mm 8 m/s 761 mmHg 59%
09:00 +11°C° 0.1 mm 8 m/s 761 mmHg 57%
10:00 +12°C° 0 mm 7 m/s 762 mmHg 54%
11:00 +14°C° 0 mm 7 m/s 761 mmHg 52%
12:00 +15°C° 0 mm 8 m/s 761 mmHg 51%
13:00 +16°C° 0 mm 9 m/s 760 mmHg 49%
14:00 +16°C° 0.1 mm 9 m/s 760 mmHg 50%
15:00 +15°C° 0.1 mm 9 m/s 761 mmHg 51%
16:00 +15°C° 0 mm 7 m/s 761 mmHg 50%
17:00 +15°C° 0.1 mm 8 m/s 761 mmHg 53%
18:00 +13°C° 0.1 mm 8 m/s 761 mmHg 56%
19:00 +12°C° 0.1 mm 9 m/s 762 mmHg 59%
20:00 +12°C° 0.1 mm 9 m/s 762 mmHg 63%
21:00 +11°C° 0.1 mm 9 m/s 762 mmHg 67%
22:00 +11°C° 0.1 mm 9 m/s 763 mmHg 72%
23:00 +11°C° 0 mm 9 m/s 762 mmHg 71%

Demain, 17 Juillet, Vendredi

Heure Température Précipitation Vent Pression Humidité
00:00 +10°C° 0 mm 9 m/s 762 mmHg 70%
01:00 +10°C° 0 mm 8 m/s 762 mmHg 69%
02:00 +10°C° 0 mm 8 m/s 762 mmHg 72%
03:00 +10°C° 0 mm 8 m/s 762 mmHg 74%
04:00 +9°C° 0 mm 8 m/s 762 mmHg 76%
05:00 +9°C° 0 mm 8 m/s 763 mmHg 77%
06:00 +9°C° 0 mm 8 m/s 763 mmHg 77%
07:00 +7°C° 0 mm 8 m/s 764 mmHg 77%
08:00 +10°C° 0.1 mm 8 m/s 764 mmHg 72%
09:00 +11°C° 0.1 mm 8 m/s 764 mmHg 66%
10:00 +13°C° 0.1 mm 8 m/s 764 mmHg 60%
11:00 +15°C° 0 mm 8 m/s 764 mmHg 57%
12:00 +16°C° 0 mm 8 m/s 763 mmHg 55%
13:00 +17°C° 0 mm 8 m/s 763 mmHg 52%
14:00 +16°C° 0 mm 8 m/s 763 mmHg 54%
15:00 +16°C° 0 mm 8 m/s 763 mmHg 57%
16:00 +16°C° 0 mm 8 m/s 763 mmHg 59%
17:00 +15°C° 0.1 mm 7 m/s 764 mmHg 65%
18:00 +14°C° 0.1 mm 7 m/s 764 mmHg 70%
19:00 +13°C° 0.1 mm 6 m/s 765 mmHg 76%
20:00 +12°C° 0.3 mm 5 m/s 765 mmHg 76%
21:00 +12°C° 0.3 mm 5 m/s 765 mmHg 77%
22:00 +12°C° 0.3 mm 4 m/s 766 mmHg 78%
23:00 +11°C° 0.2 mm 4 m/s 765 mmHg 80%

Après-demain, 18 Juillet, Samedi

Heure Température Précipitation Vent Pression Humidité
00:00 +11°C° 0.2 mm 4 m/s 765 mmHg 82%
01:00 +10°C° 0.2 mm 4 m/s 765 mmHg 84%
02:00 +10°C° 0.1 mm 4 m/s 765 mmHg 83%
03:00 +10°C° 0.1 mm 4 m/s 765 mmHg 83%
04:00 +10°C° 0.1 mm 3 m/s 765 mmHg 82%
05:00 +9°C° 0.1 mm 3 m/s 765 mmHg 83%
06:00 +9°C° 0.1 mm 3 m/s 765 mmHg 84%
07:00 +9°C° 0.1 mm 3 m/s 765 mmHg 85%
08:00 +10°C° 0 mm 2 m/s 765 mmHg 79%
09:00 +13°C° 0 mm 2 m/s 765 mmHg 73%
10:00 +14°C° 0 mm 2 m/s 765 mmHg 66%
11:00 +15°C° 0 mm 2 m/s 764 mmHg 64%
12:00 +16°C° 0 mm 1 m/s 764 mmHg 61%
13:00 +18°C° 0 mm 1 m/s 763 mmHg 58%
14:00 +18°C° 0 mm 1 m/s 763 mmHg 59%
15:00 +18°C° 0 mm 1 m/s 763 mmHg 60%
16:00 +16°C° 0 mm 1 m/s 762 mmHg 61%
17:00 +15°C° 0 mm 1 m/s 763 mmHg 67%
18:00 +14°C° 0 mm 2 m/s 763 mmHg 74%
19:00 +13°C° 0 mm 2 m/s 763 mmHg 81%
20:00 +12°C° 0 mm 2 m/s 763 mmHg 83%
21:00 +12°C° 0 mm 2 m/s 763 mmHg 84%
22:00 +10°C° 0 mm 2 m/s 763 mmHg 86%
23:00 +10°C° 0 mm 2 m/s 763 mmHg 87%

19 Juillet, Dimanche

Heure Température Précipitation Vent Pression Humidité
00:00 +9°C° 0 mm 2 m/s 763 mmHg 87%
01:00 +9°C° 0 mm 3 m/s 762 mmHg 88%
02:00 +9°C° 0 mm 2 m/s 762 mmHg 88%
03:00 +8°C° 0 mm 2 m/s 761 mmHg 88%
04:00 +8°C° 0 mm 2 m/s 761 mmHg 88%
05:00 +8°C° 0 mm 2 m/s 761 mmHg 87%
06:00 +8°C° 0 mm 2 m/s 761 mmHg 87%
07:00 +7°C° 0 mm 2 m/s 762 mmHg 86%
08:00 +9°C° 0 mm 2 m/s 762 mmHg 77%
09:00 +12°C° 0 mm 2 m/s 761 mmHg 67%
10:00 +13°C° 0 mm 3 m/s 761 mmHg 58%
11:00 +16°C° 0 mm 2 m/s 761 mmHg 52%
12:00 +18°C° 0 mm 2 m/s 760 mmHg 46%
13:00 +20°C° 0 mm 2 m/s 759 mmHg 40%
14:00 +20°C° 0 mm 2 m/s 759 mmHg 41%
15:00 +20°C° 0 mm 2 m/s 758 mmHg 42%
16:00 +20°C° 0 mm 2 m/s 758 mmHg 42%
17:00 +18°C° 0 mm 4 m/s 759 mmHg 46%
18:00 +16°C° 0 mm 5 m/s 759 mmHg 51%
19:00 +14°C° 0 mm 6 m/s 759 mmHg 55%
20:00 +13°C° 0 mm 6 m/s 759 mmHg 57%
21:00 +13°C° 0 mm 5 m/s 759 mmHg 59%
22:00 +12°C° 0 mm 5 m/s 759 mmHg 62%
23:00 +10°C° 0 mm 5 m/s 759 mmHg 62%

20 Juillet, Lundi

Heure Température Précipitation Vent Pression Humidité
00:00 +11°C° 0 mm 4 m/s 759 mmHg 62%
01:00 +11°C° 0 mm 4 m/s 759 mmHg 62%
02:00 +10°C° 0 mm 4 m/s 759 mmHg 63%
03:00 +10°C° 0 mm 3 m/s 759 mmHg 65%
04:00 +9°C° 0 mm 3 m/s 759 mmHg 66%
05:00 +9°C° 0 mm 3 m/s 760 mmHg 67%
06:00 +8°C° 0 mm 4 m/s 760 mmHg 67%
07:00 +8°C° 0 mm 4 m/s 761 mmHg 67%
08:00 +10°C° 0 mm 4 m/s 761 mmHg 61%
09:00 +12°C° 0 mm 5 m/s 762 mmHg 54%
10:00 +13°C° 0 mm 5 m/s 762 mmHg 47%
11:00 +14°C° 0 mm 5 m/s 762 mmHg 41%
12:00 +15°C° 0 mm 5 m/s 761 mmHg 35%
13:00 +16°C° 0 mm 5 m/s 761 mmHg 30%
14:00 +16°C° 0 mm 6 m/s 761 mmHg 31%
15:00 +15°C° 0 mm 6 m/s 761 mmHg 32%
16:00 +15°C° 0 mm 6 m/s 761 mmHg 33%
17:00 +12°C° 0 mm 7 m/s 762 mmHg 39%
18:00 +11°C° 0 mm 7 m/s 763 mmHg 45%
19:00 +9°C° 0 mm 7 m/s 764 mmHg 50%
20:00 +9°C° 0 mm 7 m/s 764 mmHg 52%
21:00 +9°C° 0 mm 7 m/s 765 mmHg 53%
22:00 +8°C° 0 mm 7 m/s 765 mmHg 55%
23:00 +8°C° 0 mm 6 m/s 765 mmHg 56%

21 Juillet, Mardi

Heure Température Précipitation Vent Pression Humidité
00:00 +8°C° 0 mm 6 m/s 766 mmHg 57%
01:00 +8°C° 0 mm 5 m/s 766 mmHg 59%
02:00 +7°C° 0 mm 5 m/s 766 mmHg 62%
03:00 +7°C° 0 mm 6 m/s 766 mmHg 66%
04:00 +5°C° 0 mm 6 m/s 766 mmHg 70%
05:00 +6°C° 0 mm 5 m/s 767 mmHg 73%
06:00 +5°C° 0 mm 5 m/s 767 mmHg 76%
07:00 +5°C° 0 mm 5 m/s 768 mmHg 79%
08:00 +7°C° 0 mm 4 m/s 768 mmHg 68%
09:00 +10°C° 0 mm 4 m/s 768 mmHg 58%
10:00 +11°C° 0 mm 4 m/s 768 mmHg 47%
11:00 +12°C° 0 mm 4 m/s 768 mmHg 45%
12:00 +14°C° 0 mm 4 m/s 768 mmHg 43%
13:00 +15°C° 0 mm 5 m/s 767 mmHg 41%
14:00 +14°C° 0 mm 5 m/s 767 mmHg 45%
15:00 +13°C° 0 mm 5 m/s 767 mmHg 49%
16:00 +13°C° 0 mm 5 m/s 767 mmHg 53%
17:00 +12°C° 0 mm 5 m/s 768 mmHg 58%
18:00 +11°C° 0 mm 4 m/s 769 mmHg 62%
19:00 +10°C° 0 mm 4 m/s 769 mmHg 66%
20:00 +8°C° 0 mm 4 m/s 769 mmHg 68%
21:00 +9°C° 0 mm 3 m/s 769 mmHg 70%
22:00 +9°C° 0 mm 3 m/s 769 mmHg 72%
23:00 +8°C° 0 mm 3 m/s 769 mmHg 72%
Voir plus